ENSR

Sørkjosen Airport

Airport
ICAO code
ENSR
IATA Code
SOJ
Summary
ICAO Region
EUR
ICAO Territory
Location

Sørkjosen, Nordreisa, Troms,

Serving
Sørkjosen
Coordinates
69° 47' 11" N , 20° 57' 35" E
KCC
Airport CFIT
Altimeter Temperature Error Correction
Airport GND
Aircraft Ground De/Anti Icing
Airport WX
Low Level Turbulence
Metar
ENSR 161250Z 16009KT 9999 FEW046 02/M05 Q1009 RMK WIND RWY 32 15010KT WIND 1119FT 14013KT

Description

Airport in Sørkjosen in the municipality of Nordreisa, Troms in Northern Norway.

Climatology

Borderline Subpolar Oceanic/Continental subarctic climate (because of winter temperatures) (Köppen climate classification Cfc/Dfc) - uniform precipitation distribution, temperatures are moderated by the proximity of the ocean and warm currents - cool summers and comparatively mild winters.

Heavy snowfalls in winter.

Runways

Designator Length Width Surface Rops
15/33 919 30 ASP No/No

Airport map

Aerial View

SKYbrary Partners:

Safety knowledge contributed by: